星链-31802 (STARLINK-31802 )

导读 | 豆包AI

STARLINK-31802是美国太空探索技术公司(SpaceX)星链互联网卫星星座的一员,于北京时间2024年5月3日8时发射。星链项目旨在构建全球卫星互联网,该卫星入轨后,将进一步扩充星链星座规模,提升全球覆盖能力,为全球各地用户提供高速低延迟的互联网接入服务。

基本信息
目录编号:
59636
目录名称:
STARLINK-31802
国际标识:
2024-082F
轨道中心:
EARTH
卫星名称:
星链-31802
卫星全名:
星链-31802 (STARLINK-31802 )
卫星状态:
在轨 (已飞行681 天)
发射日期:
2024-05-03 UTC
国别 :
美国 (US)
星等 :
--
轨道信息
数据来源 国际轨道数据
星历时间: 2026-03-15T03:39:45+0800
1天前
查看轨道信息
半长轴: 6861.186km
偏心率: 0.0000525
轨道倾角: 43.004°
近地点辐角 306.130°
升交点赤经 111.080°
平近点角 53.951°
近地点: 482.688km
远地点: 483.41km
周期: 94.267分钟
每日圈数: 15.275803
详细信息
固有亮度:
5
最大亮度:
1.5
卫星平台:
Starlink v2.0 mini
覆盖范围:
全球
运营商:
太空探索技术公司
运营商所在国:
美国
制造商(研发单位):
太空探索技术公司
制造商所在国:
美国
使用方式:
暂无
卫星简介
星链(Starlink)计划是由太空探索技术公司(SpaceX)提出的一个巨型低轨卫星互联网星座项目,计划在2019年至2024年间在太空搭建由约1.2万颗卫星组成的“星链”网络,其中1584颗将部署在地球上空550千米处的近地轨道,并从2020年开始工作。该卫星仍在工作。
2D轨道图
3D轨道图
轨道高度分析图
轨道倾角分析图
轨道综合分析图
查看轨道综合分析图